Regional Weather Roundup
Issued by NWS Midland/Odessa, TX

Skip options and go directly to product.
Home | Oldest Version | Previous Version | Current Version | All | Text Only | Save Text | Print | Product List | Glossary Off

Skip product version selection by date and time.   

583
ASUS44 KMAF 202110
RWRMAF
MIDLAND AREA WEATHER ROUNDUP
NATIONAL WEATHER SERVICE MIDLAND TX
300 PM CST SAT DEC 20 2014

...IN SOUTHWEST TEXAS AND SOUTHEAST NEW MEXICO...

CITY           SKY/WX    TMP DP  RH WIND       PRES   REMARKS
ALPINE         SUNNY     61  29  30 SW14G26   30.11F
ANDREWS        FAIR      56  32  40 SW9       30.03F
ARTESIA        MOSUNNY   54  28  37 SE7       30.01F
BIG SPRING     CLOUDY    54  46  75 S10       30.10F
CARLSBAD       SUNNY     56  32  40 SE10      30.01F
DRYDEN           N/A     56  45  66 SE7       30.06F
FORT STOCKTON  SUNNY     60  32  34 E7        30.04F
GUAD PASS      NOT AVBL
HOBBS          SUNNY     54  32  43 S6        30.03F
MARFA          SUNNY     61  28  29 W15G23    30.08F
MIDLAND AIRPK  MOSUNNY   58  42  55 S7G16     30.05F
MIDLAND INTL   SUNNY     58  38  47 S14       30.04F
ODESSA         SUNNY     58  29  33 SW14      30.04F
PECOS          SUNNY     60  31  33 W5        30.03F
PRESIDIO       FAIR      63  32  31 S3        30.04F
SEMINOLE       SUNNY     54  32  43 S12       30.05F
SNYDER         CLOUDY    48  41  77 S7        30.10S
WINK           SUNNY     59  27  29 SW7       30.02F
$$
...OTHER STATIONS IN TEXAS...

CITY           SKY/WX    TMP DP  RH WIND       PRES   REMARKS
ABILENE        CLOUDY    50  40  68 SE9       30.12F
AMARILLO       SUNNY     52  29  41 S16G24    30.01F
AUSTIN         CLOUDY    54  46  74 N10       30.15F
BROWNSVILLE    CLOUDY    59  53  80 N14       30.11F
CORPUS CHRISTI CLOUDY    57  50  77 N6        30.14F
DALLAS FTW     CLOUDY    46  42  86 NE3       30.19S
DEL RIO        PTSUNNY   59  47  64 SE10      30.09F
EL PASO        PTSUNNY   55  27  34 SW13      30.08F
HOUSTON INT    CLOUDY    54  49  83 N7        30.15F
LUBBOCK        CLOUDY    46  38  73 S13       30.05F
SAN ANGELO     CLOUDY    54  45  71 S5        30.10F
SAN ANTONIO    MOSUNNY   59  44  57 VRB6      30.13F
WACO           CLOUDY    50  44  80 N7        30.18F
WICHITA FALLS  NOT AVBL
$$
...OTHER LOCATIONS IN NEW MEXICO...

CITY           SKY/WX    TMP DP  RH WIND       PRES   REMARKS
ALAMAGORDO     MOSUNNY   52  25  35 NW10      30.09F
ALBUQUERQUE    MOSUNNY   43  26  51 CALM      30.10F
CANNON AFB     MOSUNNY   51  20  29 SW12      29.99F
CLOVIS         SUNNY     52  21  30 SW13      29.98F
HOLLOMAN AFB   MOSUNNY   52  24  34 NW5       30.08F
ROSWELL        MOSUNNY   55  26  32 SE10      30.01F
RUIDOSO        MOSUNNY   43  18  36 NW7       30.06F WCI  39
SANTA FE       SUNNY     40  23  50 SW10      30.05F WCI  33
TRUTH OR CONSE SUNNY     50  19  29 VRB5      30.08F
TUCUMCARI      MOSUNNY   51  24  34 NW6       29.97F
$$

USA.gov is the U.S. government's official web portal to all federal, state and local government web resources and services.